Location: Unspecified
(0.0000°N, 0.0000°E)
Time: 17:48:42
(UTC+00:00)

Hubble Space Telescope - Pass Details

Date: 17 January 2026
Orbit: 479 x 481 km, 28.5° (Epoch: 19 January)

Event Time Altitude Azimuth Distance (km) Brightness Sun altitude
Rises 18:28:28 0° 250° (WSW) 2,518 7.5 -4.3°
Reaches altitude 10° 18:30:44 10° 257° (WSW) 1,639 5.1 -4.8°
Maximum altitude 18:34:20 43° 330° (NNW) 674 1.4 -5.6°
Drops below altitude 10° 18:37:56 10° 43° (NE) 1,636 2.7 -6.5°
Enters shadow 18:38:42 - 46° (NE) 1,931 3.0 -6.7°
